Location: Jackson Park
(37.2862°N, 79.9123°W)
Time: 11:24:47
(UTC+00:00)

A-11 Canister half - Visible Passes

Search period start: 15 May 2026 00:00
Search period end: 25 May 2026 00:00
Orbit: 1515 x 1684 km, 47.2° (Epoch: 14 May)

Date Brightness Start Highest point End Pass type
(mag) Time Alt. Az. Time Alt. Az. Time Alt. Az.
15 May 9.0 01:39:17 10° SSW 01:48:29 54° SE 01:57:27 10° ENE visible
15 May 9.3 03:43:59 10° WSW 03:53:21 63° NNW 04:02:32 10° ENE visible
15 May 9.8 05:50:44 10° WNW 05:59:35 45° N 06:08:23 10° ENE visible
15 May 9.2 07:56:29 10° WNW 08:05:43 68° NNE 08:15:01 10° ESE visible
16 May 9.1 01:16:22 10° SSW 01:25:30 51° SE 01:34:22 10° ENE visible
16 May 9.2 03:20:52 10° WSW 03:30:16 66° NNW 03:39:29 10° ENE visible
16 May 9.8 05:27:36 10° WNW 05:36:27 45° N 05:45:15 10° ENE visible
16 May 9.3 07:33:26 10° WNW 07:42:38 65° NNE 07:51:54 10° ESE visible
16 May 9.1 09:38:35 10° WNW 09:47:24 51° SW 09:56:21 10° SSE visible
17 May 9.2 00:53:27 10° SSW 01:02:30 48° SE 01:11:18 10° ENE visible
17 May 9.2 02:57:44 10° WSW 03:07:11 68° NNW 03:16:26 10° ENE visible
17 May 9.8 05:04:27 10° WNW 05:13:20 46° N 05:22:07 10° ENE visible
17 May 9.3 07:10:23 10° WNW 07:19:34 63° NNE 07:28:46 10° ESE visible
17 May 9.0 09:15:30 10° WNW 09:24:24 54° SW 09:33:26 10° SSE visible
18 May 9.2 02:34:36 10° WSW 02:44:07 71° NNW 02:53:24 10° ENE visible
18 May 9.8 04:41:18 10° WNW 04:50:12 46° N 04:59:00 10° ENE visible
18 May 9.3 06:47:19 10° WNW 06:56:29 61° NNE 07:05:39 10° ESE visible
18 May 9.0 08:52:26 10° WNW 09:01:25 58° SW 09:10:30 10° SSE visible
19 May 9.2 02:11:29 10° WSW 02:21:03 74° NNW 02:30:22 10° ENE visible
19 May 9.8 04:18:08 10° WNW 04:27:04 46° N 04:35:53 10° ENE visible
19 May 9.4 06:24:15 10° WNW 06:33:24 59° NNE 06:42:31 10° E visible
19 May 8.9 08:29:22 10° WNW 08:38:25 61° SW 08:47:33 10° SE visible
20 May 9.2 01:48:22 10° WSW 01:57:59 77° NNW 02:07:20 10° ENE visible
20 May 9.8 03:54:58 10° WNW 04:03:57 46° N 04:12:47 10° ENE visible
20 May 9.4 06:01:11 10° WNW 06:10:18 57° NNE 06:19:24 10° E visible
20 May 8.8 08:06:18 10° WNW 08:15:25 65° SW 08:24:36 10° SE visible
21 May 9.1 01:25:16 10° WSW 01:34:55 80° NNW 01:44:18 10° ENE visible
21 May 9.8 03:31:47 10° W 03:40:49 47° N 03:49:41 10° ENE visible
21 May 9.5 05:38:06 10° WNW 05:47:13 55° NNE 05:56:15 10° E visible
21 May 8.8 07:43:15 10° WNW 07:52:25 69° SW 08:01:38 10° SE visible
22 May 9.1 01:02:10 10° WSW 01:11:52 84° NNW 01:21:15 10° ENE visible
22 May 9.8 03:08:37 10° W 03:17:42 48° N 03:26:35 10° ENE visible
22 May 9.5 05:15:01 10° WNW 05:24:07 54° NNE 05:33:08 10° E visible
22 May 8.8 07:20:12 10° WNW 07:29:24 73° SW 07:38:39 10° SE visible
22 May 9.9 09:26:56 10° W 09:33:06 20° SW 09:39:20 10° SSW visible
23 May 9.1 00:39:04 10° WSW 00:48:49 87° NNW 00:58:14 10° ENE visible
23 May 9.8 02:45:27 10° W 02:54:34 48° N 03:03:29 10° ENE visible
23 May 9.6 04:51:55 10° WNW 05:01:01 52° NNE 05:10:00 10° E visible
23 May 8.8 06:57:08 10° WNW 07:06:23 77° SW 07:15:39 10° SE visible
23 May 9.8 09:03:37 10° W 09:10:09 22° SW 09:16:46 10° S visible
24 May 9.8 02:22:15 10° W 02:31:27 49° NNW 02:40:24 10° ENE visible
24 May 9.6 04:28:49 10° WNW 04:37:54 51° NNE 04:46:51 10° E visible
24 May 8.8 06:34:05 10° WNW 06:43:23 81° SW 06:52:38 10° SE visible
24 May 9.7 08:40:21 10° WNW 08:47:13 24° SW 08:54:09 10° S visible
